{"data":{"norad_id":59030,"intl_designator":"2024-038H","name":"STARLINK-31186","alt_names":[],"object_type":"PAYLOAD","status":"ACTIVE","operator":null,"country":"US","launch_date":"2024-02-25","launch_site_code":"AFETR","launch_vehicle":null,"mission":null,"orbit_class":"UNKNOWN","rcs_meters":null,"size_class":null,"mass_kg":null,"dimensions":null,"purposes":["comms"],"wikipedia_slug":null,"has_3d_model":false,"image_url":null,"decayed_at":null,"tle_current":{"epoch":"2026-05-25T04:17:37.176000Z","epoch_age_seconds":53621,"freshness":"FRESH","line1":"1 59030U 24038H   26145.17890250  .00001349  00000+0  58566-4 0  9994","line2":"2 59030  43.0015 315.2669 0001326 269.7428  90.3271 15.27561251126459","mean_motion":15.27561251,"eccentricity":0.0001326,"inclination_deg":43.0015,"raan_deg":315.2669,"arg_perigee_deg":269.7428,"mean_anomaly_deg":90.3271,"bstar":5.8566e-5,"rev_number":12645,"period_min":94.267905726027,"perigee_km":482.19543714405,"apogee_km":484.01503858553,"semimajor_km":6861.2422378648,"source":"CELESTRAK","updated_at":"2026-05-25T13:38:18.823422Z"}}}